Location: Helstorf
(52.5868°N, 9.5862°E)
Time: 20:33:39
(UTC+00:00)

CZ-4C R/B - Pass Details

Date: 15 May 2026
Orbit: 474 x 1503 km, 63.4° (Epoch: 7 June)

Event Time Altitude Azimuth Distance (km) Brightness Sun altitude
Rises 20:54:17 0° 266° (W) 2,916 5.5 -11.9°
Reaches altitude 10° 20:56:30 10° 276° (W) 2,131 4.9 -12.1°
Maximum altitude 21:00:59 35° 342° (NNW) 1,285 3.9 -12.5°
Drops below altitude 10° 21:06:43 10° 48° (NE) 2,748 5.0 -12.9°
Sets 21:09:57 0° 56° (ENE) 3,890 5.7 -13.2°
